TimeCDT,TemperatureF,Dew PointF,Humidity,Sea Level PressureIn,VisibilityMPH,Wind Direction,Wind SpeedMPH,Gust SpeedMPH,PrecipitationIn,Events,Conditions,WindDirDegrees,DateUTC
12:15 AM,55.4,53.4,93,30.13,10.0,NNE,3.5,-,N/A,,Clear,30,2012-10-09 05:15:00
12:35 AM,55.2,53.4,94,30.12,10.0,NNE,3.5,-,N/A,,Clear,30,2012-10-09 05:35:00
12:55 AM,54.9,53.6,96,30.11,10.0,NNE,3.5,-,N/A,,Clear,30,2012-10-09 05:55:00
1:15 AM,54.5,53.6,97,30.11,10.0,Calm,Calm,-,N/A,,Clear,0,2012-10-09 06:15:00
1:55 AM,53.2,53.2,100,30.11,10.0,Calm,Calm,-,N/A,,Clear,0,2012-10-09 06:55:00
2:15 AM,52.9,52.9,100,30.11,10.0,Calm,Calm,-,N/A,,Clear,0,2012-10-09 07:15:00
2:55 AM,52.0,52.0,100,30.11,10.0,North,3.5,-,N/A,,Clear,360,2012-10-09 07:55:00
3:15 AM,51.8,51.8,100,30.11,10.0,North,3.5,-,N/A,,Clear,360,2012-10-09 08:15:00
3:35 AM,52.2,52.2,100,30.10,10.0,Calm,Calm,-,N/A,,Clear,0,2012-10-09 08:35:00
3:55 AM,51.8,51.8,100,30.10,10.0,Calm,Calm,-,N/A,,Clear,0,2012-10-09 08:55:00
4:15 AM,51.6,51.6,100,30.11,10.0,North,3.5,-,N/A,,Clear,350,2012-10-09 09:15:00
4:35 AM,50.9,50.9,100,30.11,10.0,North,3.5,-,N/A,,Clear,360,2012-10-09 09:35:00
4:55 AM,51.3,51.3,100,30.11,10.0,Calm,Calm,-,N/A,,Clear,0,2012-10-09 09:55:00
5:15 AM,51.1,51.1,100,30.11,10.0,Calm,Calm,-,N/A,,Clear,0,2012-10-09 10:15:00
5:35 AM,51.1,51.1,100,30.12,10.0,Calm,Calm,-,N/A,,Clear,0,2012-10-09 10:35:00
5:55 AM,49.6,49.6,100,30.12,3.0,Calm,Calm,-,N/A,,Clear,0,2012-10-09 10:55:00
6:15 AM,50.0,50.0,100,30.12,7.0,Calm,Calm,-,N/A,,Clear,0,2012-10-09 11:15:00
6:55 AM,50.0,50.0,100,30.13,7.0,Calm,Calm,-,N/A,,Clear,0,2012-10-09 11:55:00
7:15 AM,50.2,50.2,100,30.13,7.0,Calm,Calm,-,N/A,,Clear,0,2012-10-09 12:15:00
7:35 AM,50.0,50.0,100,30.13,7.0,NNW,3.5,-,N/A,,Clear,340,2012-10-09 12:35:00
7:55 AM,52.3,52.3,100,30.13,10.0,NNE,4.6,-,N/A,,Clear,30,2012-10-09 12:55:00
8:15 AM,53.2,53.2,100,30.14,10.0,NNE,3.5,-,N/A,,Clear,30,2012-10-09 13:15:00
8:35 AM,54.9,54.9,100,30.14,10.0,NE,4.6,-,N/A,,Clear,50,2012-10-09 13:35:00
8:55 AM,57.2,56.5,97,30.15,10.0,NNE,4.6,-,N/A,,Clear,20,2012-10-09 13:55:00
9:15 AM,59.4,57.7,94,30.15,10.0,ENE,3.5,-,N/A,,Clear,60,2012-10-09 14:15:00
9:35 AM,61.5,58.3,89,30.15,10.0,East,3.5,-,N/A,,Clear,80,2012-10-09 14:35:00
9:55 AM,63.9,59.5,86,30.16,10.0,Calm,Calm,-,N/A,,Clear,0,2012-10-09 14:55:00
10:15 AM,66.0,59.4,79,30.16,10.0,Calm,Calm,-,N/A,,Clear,0,2012-10-09 15:15:00
10:35 AM,67.6,58.6,73,30.15,10.0,Calm,Calm,-,N/A,,Clear,0,2012-10-09 15:35:00
10:55 AM,69.1,59.2,71,30.15,10.0,Calm,Calm,-,N/A,,Clear,0,2012-10-09 15:55:00
11:15 AM,70.7,59.0,66,30.14,10.0,Calm,Calm,-,N/A,,Clear,0,2012-10-09 16:15:00
11:35 AM,72.0,58.8,63,30.14,10.0,Calm,Calm,-,N/A,,Clear,0,2012-10-09 16:35:00
11:55 AM,73.6,58.1,58,30.13,10.0,Calm,Calm,-,N/A,,Clear,0,2012-10-09 16:55:00
12:15 PM,74.3,58.5,58,30.11,10.0,Calm,Calm,-,N/A,,Clear,0,2012-10-09 17:15:00
12:35 PM,75.6,59.4,57,30.10,10.0,NW,3.5,-,N/A,,Clear,320,2012-10-09 17:35:00
12:55 PM,75.6,58.6,56,30.09,10.0,Calm,Calm,-,N/A,,Clear,0,2012-10-09 17:55:00
1:15 PM,76.8,59.5,55,30.08,10.0,NW,4.6,-,N/A,,Clear,310,2012-10-09 18:15:00
1:35 PM,77.7,59.5,53,30.07,10.0,NNW,3.5,-,N/A,,Clear,330,2012-10-09 18:35:00
1:55 PM,78.1,60.1,54,30.06,10.0,WNW,6.9,-,N/A,,Clear,300,2012-10-09 18:55:00
2:15 PM,78.8,60.3,53,30.05,10.0,NNE,3.5,-,N/A,,Clear,30,2012-10-09 19:15:00
2:35 PM,79.0,59.9,52,30.05,10.0,Calm,Calm,-,N/A,,Clear,0,2012-10-09 19:35:00
2:55 PM,79.3,60.1,52,30.04,10.0,North,4.6,-,N/A,,Clear,360,2012-10-09 19:55:00
3:15 PM,79.5,60.1,51,30.03,10.0,Calm,Calm,-,N/A,,Clear,0,2012-10-09 20:15:00
3:35 PM,79.5,60.3,52,30.03,10.0,North,3.5,-,N/A,,Clear,360,2012-10-09 20:35:00
3:55 PM,79.7,60.4,52,30.02,10.0,North,5.8,-,N/A,,Clear,350,2012-10-09 20:55:00
4:15 PM,80.4,60.8,51,30.02,10.0,NNW,3.5,-,N/A,,Clear,340,2012-10-09 21:15:00
4:35 PM,80.1,61.0,52,30.02,10.0,NNE,4.6,-,N/A,,Clear,20,2012-10-09 21:35:00
4:55 PM,79.2,59.9,52,30.01,10.0,North,3.5,-,N/A,,Clear,10,2012-10-09 21:55:00
5:15 PM,79.3,60.3,52,30.01,10.0,Calm,Calm,-,N/A,,Clear,0,2012-10-09 22:15:00
5:35 PM,79.0,61.2,54,30.01,10.0,Calm,Calm,-,N/A,,Clear,0,2012-10-09 22:35:00
5:55 PM,77.4,60.8,57,30.01,10.0,East,4.6,-,N/A,,Clear,100,2012-10-09 22:55:00
6:15 PM,75.9,61.5,61,30.01,10.0,East,4.6,-,N/A,,Clear,100,2012-10-09 23:15:00
6:35 PM,73.2,62.1,68,30.02,10.0,SE,4.6,-,N/A,,Clear,140,2012-10-09 23:35:00
6:55 PM,71.1,62.6,75,30.01,10.0,SE,4.6,-,N/A,,Clear,130,2012-10-09 23:55:00
7:15 PM,69.8,62.1,76,30.01,10.0,SE,4.6,-,N/A,,Clear,140,2012-10-10 00:15:00
7:35 PM,68.0,61.9,81,30.02,10.0,SSE,4.6,-,N/A,,Clear,150,2012-10-10 00:35:00
7:55 PM,67.8,62.6,83,30.02,10.0,SSE,4.6,-,N/A,,Clear,160,2012-10-10 00:55:00
8:15 PM,66.7,63.1,88,30.03,10.0,SSE,4.6,-,N/A,,Clear,160,2012-10-10 01:15:00
8:35 PM,67.1,64.0,90,30.04,10.0,South,3.5,-,N/A,,Clear,180,2012-10-10 01:35:00
8:55 PM,67.1,64.6,92,30.04,7.0,South,3.5,-,N/A,,Clear,180,2012-10-10 01:55:00
9:15 PM,66.2,64.8,95,30.04,7.0,SSE,3.5,-,N/A,,Clear,160,2012-10-10 02:15:00
9:35 PM,65.8,65.1,98,30.05,7.0,Calm,Calm,-,N/A,,Clear,0,2012-10-10 02:35:00
9:55 PM,66.2,65.7,98,30.05,7.0,Calm,Calm,-,N/A,,Clear,0,2012-10-10 02:55:00
10:15 PM,65.7,65.5,99,30.05,5.0,Calm,Calm,-,N/A,,Clear,0,2012-10-10 03:15:00
10:35 PM,62.6,62.6,100,30.05,2.5,Calm,Calm,-,N/A,,Clear,0,2012-10-10 03:35:00
10:55 PM,62.8,62.8,100,30.05,7.0,Calm,Calm,-,N/A,,Clear,0,2012-10-10 03:55:00
11:15 PM,61.7,61.7,100,30.05,5.0,Calm,Calm,-,N/A,,Clear,0,2012-10-10 04:15:00
11:35 PM,62.6,62.6,100,30.05,5.0,Calm,Calm,-,N/A,,Clear,0,2012-10-10 04:35:00
11:55 PM,61.5,61.5,100,30.05,3.0,Calm,Calm,-,N/A,,Clear,0,2012-10-10 04:55:00